Terminal Aerodrome Forecast
Issued by NWS Louisville, KY

Home | Current Version | Previous Version | Text Only | Print | Product List | Glossary On
Versions: 1 2 3 4 5 6 7 8 9 10 11 12 13 14 15 16 17 18 19 20 21 22
000
FTUS43 KLMK 300500
TAFBWG
TAF
KBWG 300522Z 3006/3106 17003KT P6SM SCT100
     FM301500 20008KT P6SM SCT050 BKN100
     FM301800 19006KT 6SM -SHRA VCTS BKN035CB
     FM310000 18006KT P6SM VCSH BKN035=

USA.gov is the U.S. government's official web portal to all federal, state and local government web resources and services.